Terminal Aerodrome Forecast
Issued by NWS

Current Version | Previous Version | Text Only | Print | Product List | Glossary Off
Versions: 1 2 3 4 5 6 7 8 9 10 11 12 13 14 15 16 17 18 19 20 21 22 23 24 25 26 27 28 29 30

000
FTUS41 KILN 221700
TAFLUK
TAF
KLUK 221738Z 2218/2318 13010KT P6SM SCT045 BKN200
      TEMPO 2218/2220 BKN045
     FM222000 12011KT P6SM SCT030 BKN045
      TEMPO 2222/2302 OVC030
     FM230200 14012KT P6SM VCSH SCT018 OVC030
     FM230800 15011KT P6SM -SHRA OVC022
      TEMPO 2308/2312 3SM -SHRA OVC010
     FM231200 18010KT P6SM VCSH OVC018
      TEMPO 2314/2316 2SM -SHRA OVC010
     FM231600 18006KT P6SM VCSH OVC015=

USA.gov is the U.S. government's official web portal to all federal, state and local government web resources and services.